world map with ROI marked

ROI - Airport

This information may not be accurate or current and is not valid for navigation or flight planning. No warranty of fitness for any purpose is made or implied.

flag of Thailand

Donate via PayPal

Additional information is available on the NEW Great Circle Mapper

Location
City:  Roi Et, Roi Et, Thailand
ICAO / IATA:VTUV / ROI

Details
Type:Airport (Aerodrome, Airfield)
Latitude:16°07'00"N (16.116761)
Longitude:103°46'26"E (103.773797)
Datum:WGS 1984
Elevation:451 ft (137 m)
Runways:1
Longest:6890 × 148 ft (2100 × 45 m)

Time
Timezone:UTC+7 (DST+9)
Local Time:

Weather
METAR:VTUV  041400Z 14002KT 6000 FEW030 25/17 Q1012 NOSIG
TAF:VTUV  041100Z 0412/0512 03004KT 7000 NSC BECMG 0421/0423 5000 BR BECMG 0501/0503 09005KT 8000 NSW

Related Locations
Nearby:
Farthest:APE: 12352 mi / 19879 km
San Juan Aposento, ICA, PE

Find:

   beyond  
but within

Other Information
Maps:
Sources:

  


 


Great Circle Mapper   Great Circle Mapper
Great Circle Mapper FAQ   Great Circle Mapper FAQ
  Karl's Home Page
KLSē   KLSē Home
   GC on Facebook
Airlines of the World   Airlines of the World
Donate via PayPal


Copyright © 2004-2019, Karl L. Swartz. All rights reserved.
All trademarks mentioned herein belong to their respective owners.

Please see credits for attribution and copyright information.

Karl Swartz <karl@kls2.com>
  Powered by FreeBSD
Valid HTML 4.01!
Labeled with ICRA
hCard Microformat
Geo Microformat